Find Flock 4q-25

NORAD ID: 58303 Int'l Des: 2023-174 Owner: PLAN Country: US Constellation: planet operational
LEOCIRCULARRETROGRADESSO

实时位置

正在加载3D地球...

关于 Flock 4q-25

正在加载描述...

即将过境

Passes for default location (London). Set your location on the main map for personalized predictions.

高度历史

Loading altitude history...

两行轨道根数

1 58303U 23174AZ 26106.19415734 .00081954 00000-0 85979-3 0 9993
2 58303 97.3830 197.7330 0004588 318.4804 41.6106 15.64101637136310
Epoch: Apr 16, 2026 • Age: 27 hours

当前状态

高度 401.3 km
速度 7.67 km/s
星下点 -82.07°S, 57.79°W
发射日期 Nov 11, 2023
运行时间 2.4 years
类型 earth observation

技术详情

分类 Payload
质量 5.70 kg
干质量 5.70 kg
总质量 5.70 kg
长度 0.30 m
直径 0.10 m
跨度 0.30 m
形状 Box+2 pan
制造商 PLAN
平台类型 Cubesat 3U
阶段状态 In Orbit
所有者/国家 PLAN/US

Most Searched